sat.trackr.live / text

‹ back to catalog

STARLINK-35317

NORAD 66184 · 2025-243H

PAYLOAD ACTIVE UNKNOWN

§ Identity

Operator
Country
US
Launch date
2025-10-26
Launch site
AFETR
Launch vehicle
Mass (kg)
RCS (m²)

Purposes: comms

External: N2YO · Heavens-Above · Gunter

§ Orbital elements

Epoch: 2026-05-24T23:41:48.210720Z

Period
94.10 min
Inclination
53.1562°
Eccentricity
0.0001001
Mean motion
15.30213183 rev/d
Perigee alt
474.5 km
Apogee alt
475.9 km
Semi-major
6,853.3 km
B*
5.2997e-4
RAAN
250.9755°
Arg perigee
61.5016°
Mean anomaly
298.6086°
Rev number
3,233

§ Raw data

STARLINK-353171 66184U 25243H   26144.98736355  .00015376  00000+0  52997-3 0  99902 66184  53.1562 250.9755 0001001  61.5016 298.6086 15.30213183 32330

JSON: /api/v1/satellites/66184 · /tle

For live sub-satellite position, see the globe view (requires WebGL).

§ Visibility from observer

Set your observer location to see the next 7 days of passes ≥ 10°. The values pass through the URL so the page stays shareable.

No JS? Fill the form by hand. The geolocation button needs JavaScript.